Погода в Сукабуми

Индонезия     6°56′09″S   106°55′54″E
темп.,
°C
ветер,
м/с
пор.,
м/с
влажн.,
%
обл.,
%
осадки,
мм/ч
давл.,
гПа
погр.,
м
1 марта, пн
пн101:00+20ссз018499 0.0 101024
04:00+20юз0183100 0.0 100926
07:00+21ссв018194 0.0 101047
10:00+26зюз356562 0.0 1011747
13:00+28зюз345666 0.4 10091251
16:00+27зюз236561 1.2 1008912
19:00+22св129075 6.5 101034
22:00+21св2295100 0.0 101174
2 марта, вт
вт201:00+21всв1195100 0.8 101024
04:00+20сз1192100 0.9 100923
07:00+22ссв118894 0.9 101171
10:00+27сз136313 0.0 10121085
13:00+28сз346638 2.3 10091118
16:00+23с118998 4.9 100775
19:00+22с119399 6.4 101031
22:00+21св0191100 0.1 101224
3 марта, ср
ср301:00+20св2289100 0.1 101035
04:00+20св2290100 0.0 100944
07:00+21св228993 0.0 101091
10:00+29с125557 0.0 10111055
13:00+30зсз124744 0.4 10091758
16:00+25з018083 3.6 1007493
19:00+22в009266 7.1 101024
22:00+22с119088 6.3 101224
4 марта, чт
чт401:00+21св239294 8.5 101186
04:00+20св239199 0.3 1010103
07:00+20св238999 0.3 101298
10:00+27св126498 0.0 1012705
13:00+30юз124898 0.1 10101879
16:00+24юз2483100 3.0 1008637
19:00+21ююз1196100 3.6 101034
22:00+21ю0195100 0.1 101236
5 марта, пт
пт501:00+21вюв119099 0.1 101123
04:00+20юв0182100 0.0 101023
07:00+21ююв117799 0.0 101130
10:00+28ююз225192 0.0 1012722
13:00+30ююз334959 0.0 10091382
16:00+28ююз33586 0.3 10071007
19:00+22юз118942 2.0 101025
22:00+21з1193100 0.4 101135